GALAXY 34 (G-34)

Last updated on Sun Jul 06 2025 00:02:47 GMT+0000 (Coordinated Universal Time)

1 54027U 22128B 25186.57440699 .00000075 00000+0 00000+0 0 9999 2 54027 0.0089 47.6592 0001721 60.1989 253.7253 1.00270638 10436
UTC large
Height (km)
Speed (km/s)
/
Latitude / Longitude
Inclination (degrees)
Orbital Period (minutes)
Azimuth
Elevation
Range (km)
Doppler Factor

Next 0 passes for location: London (51.5072 / 0.1276)

Sorry there are no passes over London.